When you browse on this site, cookies collect data to enhance your experience and personalize the content and advertising you see.
Visit our Privacy Policy to learn more. By continuing to use the site, you agree to this use of cookies and data.
  • In Deutschland
  • Länderverzeichnis
  • Für 7 Tage
  • Wassertemperatur
  • Wetterkarte
  • Widgets
  • user-avatar
    Anmelden

    Stündliche Wetter Ipswich

    Heute, 16 Oktober, Mittwoch

    Zeit Temperatur Niederschläge Wind Luftdruck Luftfeuchtigkeit
    00:00 +10°C° 0 mm 5 m/S 753 mmHg 93%
    01:00 +10°C° 0 mm 5 m/S 752 mmHg 91%
    02:00 +10°C° 0 mm 5 m/S 752 mmHg 90%
    03:00 +10°C° 0 mm 5 m/S 751 mmHg 88%
    04:00 +10°C° 0.2 mm 6 m/S 751 mmHg 89%
    05:00 +11°C° 0.2 mm 7 m/S 750 mmHg 90%
    06:00 +12°C° 0.2 mm 8 m/S 750 mmHg 91%
    07:00 +12°C° 0.7 mm 8 m/S 750 mmHg 92%
    08:00 +12°C° 0.7 mm 8 m/S 749 mmHg 92%
    09:00 +13°C° 0.7 mm 9 m/S 749 mmHg 93%
    10:00 +13°C° 0.1 mm 8 m/S 749 mmHg 89%
    11:00 +15°C° 0.1 mm 7 m/S 749 mmHg 85%
    12:00 +15°C° 0.1 mm 7 m/S 749 mmHg 82%
    13:00 +15°C° 0 mm 7 m/S 749 mmHg 79%
    14:00 +15°C° 0 mm 6 m/S 749 mmHg 77%
    15:00 +14°C° 0 mm 6 m/S 750 mmHg 74%
    16:00 +14°C° 0 mm 5 m/S 750 mmHg 77%
    17:00 +13°C° 0 mm 5 m/S 750 mmHg 80%
    18:00 +12°C° 0 mm 4 m/S 751 mmHg 82%
    19:00 +12°C° 0 mm 4 m/S 751 mmHg 82%
    20:00 +11°C° 0 mm 4 m/S 752 mmHg 82%
    21:00 +11°C° 0 mm 3 m/S 752 mmHg 82%
    22:00 +10°C° 0 mm 4 m/S 753 mmHg 82%
    23:00 +8°C° 0 mm 4 m/S 753 mmHg 83%

    Morgen, 17 Oktober, Donnerstag

    Zeit Temperatur Niederschläge Wind Luftdruck Luftfeuchtigkeit
    00:00 +8°C° 0 mm 4 m/S 753 mmHg 83%
    01:00 +7°C° 0 mm 4 m/S 754 mmHg 84%
    02:00 +8°C° 0 mm 3 m/S 754 mmHg 85%
    03:00 +8°C° 0 mm 3 m/S 754 mmHg 86%
    04:00 +7°C° 0 mm 3 m/S 754 mmHg 87%
    05:00 +7°C° 0 mm 3 m/S 754 mmHg 87%
    06:00 +7°C° 0 mm 3 m/S 754 mmHg 88%
    07:00 +8°C° 0 mm 3 m/S 754 mmHg 82%
    08:00 +10°C° 0 mm 4 m/S 754 mmHg 76%
    09:00 +11°C° 0 mm 4 m/S 755 mmHg 71%
    10:00 +12°C° 0.1 mm 4 m/S 755 mmHg 69%
    11:00 +12°C° 0.1 mm 5 m/S 755 mmHg 68%
    12:00 +13°C° 0.1 mm 5 m/S 755 mmHg 67%
    13:00 +13°C° 0.1 mm 6 m/S 754 mmHg 67%
    14:00 +13°C° 0.1 mm 6 m/S 754 mmHg 68%
    15:00 +12°C° 0.1 mm 7 m/S 754 mmHg 68%
    16:00 +12°C° 0 mm 7 m/S 754 mmHg 72%
    17:00 +11°C° 0 mm 6 m/S 754 mmHg 75%
    18:00 +10°C° 0 mm 6 m/S 754 mmHg 79%
    19:00 +10°C° 0 mm 6 m/S 754 mmHg 81%
    20:00 +10°C° 0 mm 6 m/S 754 mmHg 82%
    21:00 +10°C° 0 mm 6 m/S 754 mmHg 84%
    22:00 +10°C° 0.1 mm 6 m/S 753 mmHg 85%
    23:00 +10°C° 0.1 mm 5 m/S 753 mmHg 85%

    übermorgen, 18 Oktober, Freitag

    Zeit Temperatur Niederschläge Wind Luftdruck Luftfeuchtigkeit
    00:00 +9°C° 0.1 mm 5 m/S 753 mmHg 85%
    01:00 +9°C° 0.2 mm 6 m/S 752 mmHg 85%
    02:00 +9°C° 0.2 mm 6 m/S 752 mmHg 85%
    03:00 +9°C° 0.2 mm 7 m/S 751 mmHg 86%
    04:00 +9°C° 0.3 mm 7 m/S 751 mmHg 85%
    05:00 +9°C° 0.3 mm 7 m/S 751 mmHg 84%
    06:00 +9°C° 0.3 mm 8 m/S 750 mmHg 83%
    07:00 +10°C° 0.2 mm 8 m/S 751 mmHg 80%
    08:00 +10°C° 0.2 mm 8 m/S 751 mmHg 77%
    09:00 +11°C° 0.2 mm 8 m/S 751 mmHg 73%
    10:00 +11°C° 0 mm 9 m/S 751 mmHg 69%
    11:00 +12°C° 0 mm 9 m/S 751 mmHg 65%
    12:00 +13°C° 0 mm 9 m/S 752 mmHg 61%
    13:00 +13°C° 0 mm 9 m/S 752 mmHg 62%
    14:00 +13°C° 0 mm 9 m/S 752 mmHg 63%
    15:00 +13°C° 0 mm 9 m/S 751 mmHg 64%
    16:00 +12°C° 0 mm 8 m/S 751 mmHg 68%
    17:00 +11°C° 0 mm 8 m/S 751 mmHg 72%
    18:00 +10°C° 0 mm 7 m/S 751 mmHg 77%
    19:00 +10°C° 0 mm 7 m/S 751 mmHg 78%
    20:00 +10°C° 0 mm 6 m/S 751 mmHg 79%
    21:00 +10°C° 0 mm 6 m/S 751 mmHg 81%
    22:00 +10°C° 0.2 mm 6 m/S 751 mmHg 81%
    23:00 +10°C° 0.2 mm 6 m/S 750 mmHg 82%

    19 Oktober, Samstag

    Zeit Temperatur Niederschläge Wind Luftdruck Luftfeuchtigkeit
    00:00 +10°C° 0.2 mm 6 m/S 750 mmHg 82%
    01:00 +10°C° 0.3 mm 5 m/S 750 mmHg 84%
    02:00 +10°C° 0.3 mm 5 m/S 749 mmHg 85%
    03:00 +10°C° 0.3 mm 5 m/S 749 mmHg 87%
    04:00 +9°C° 0.5 mm 5 m/S 749 mmHg 88%
    05:00 +10°C° 0.5 mm 4 m/S 748 mmHg 89%
    06:00 +10°C° 0.5 mm 4 m/S 748 mmHg 91%
    07:00 +10°C° 0.3 mm 4 m/S 748 mmHg 86%
    08:00 +11°C° 0.3 mm 4 m/S 748 mmHg 82%
    09:00 +12°C° 0.3 mm 5 m/S 748 mmHg 78%
    10:00 +13°C° 0.5 mm 5 m/S 748 mmHg 75%
    11:00 +13°C° 0.5 mm 5 m/S 748 mmHg 71%
    12:00 +13°C° 0.5 mm 6 m/S 748 mmHg 68%
    13:00 +13°C° 0.6 mm 6 m/S 747 mmHg 69%
    14:00 +13°C° 0.6 mm 6 m/S 747 mmHg 70%
    15:00 +13°C° 0.6 mm 5 m/S 747 mmHg 72%
    16:00 +12°C° 0.1 mm 5 m/S 747 mmHg 75%
    17:00 +10°C° 0.1 mm 6 m/S 747 mmHg 78%
    18:00 +9°C° 0.1 mm 6 m/S 747 mmHg 82%
    19:00 +9°C° 0 mm 6 m/S 748 mmHg 82%
    20:00 +9°C° 0 mm 6 m/S 748 mmHg 81%
    21:00 +8°C° 0 mm 6 m/S 748 mmHg 81%
    22:00 +8°C° 0 mm 7 m/S 748 mmHg 83%
    23:00 +8°C° 0 mm 7 m/S 749 mmHg 84%

    20 Oktober, Sonntag

    Zeit Temperatur Niederschläge Wind Luftdruck Luftfeuchtigkeit
    00:00 +8°C° 0 mm 7 m/S 749 mmHg 85%
    01:00 +6°C° 0 mm 7 m/S 749 mmHg 87%
    02:00 +6°C° 0 mm 7 m/S 749 mmHg 88%
    03:00 +6°C° 0 mm 7 m/S 750 mmHg 89%
    04:00 +5°C° 0 mm 6 m/S 750 mmHg 90%
    05:00 +6°C° 0 mm 5 m/S 750 mmHg 91%
    06:00 +6°C° 0 mm 5 m/S 751 mmHg 93%
    07:00 +7°C° 0 mm 4 m/S 751 mmHg 90%
    08:00 +7°C° 0 mm 4 m/S 752 mmHg 87%
    09:00 +9°C° 0 mm 3 m/S 752 mmHg 84%
    10:00 +10°C° 0 mm 3 m/S 753 mmHg 80%
    11:00 +11°C° 0 mm 3 m/S 753 mmHg 76%
    12:00 +12°C° 0 mm 3 m/S 754 mmHg 72%
    13:00 +13°C° 0 mm 2 m/S 754 mmHg 71%
    14:00 +13°C° 0 mm 2 m/S 754 mmHg 71%
    15:00 +13°C° 0 mm 2 m/S 754 mmHg 70%
    16:00 +12°C° 0 mm 2 m/S 755 mmHg 75%
    17:00 +10°C° 0 mm 2 m/S 755 mmHg 80%
    18:00 +9°C° 0 mm 2 m/S 756 mmHg 86%
    19:00 +9°C° 0 mm 2 m/S 756 mmHg 86%
    20:00 +9°C° 0 mm 2 m/S 757 mmHg 87%
    21:00 +8°C° 0 mm 2 m/S 757 mmHg 87%
    22:00 +8°C° 0 mm 2 m/S 757 mmHg 89%
    23:00 +8°C° 0 mm 2 m/S 757 mmHg 90%

    21 Oktober, Montag

    Zeit Temperatur Niederschläge Wind Luftdruck Luftfeuchtigkeit
    00:00 +7°C° 0 mm 2 m/S 758 mmHg 92%
    01:00 +7°C° 0 mm 2 m/S 758 mmHg 92%
    02:00 +7°C° 0 mm 2 m/S 758 mmHg 92%
    03:00 +7°C° 0 mm 3 m/S 758 mmHg 93%
    04:00 +7°C° 0 mm 2 m/S 759 mmHg 94%
    05:00 +7°C° 0 mm 2 m/S 759 mmHg 94%
    06:00 +7°C° 0 mm 2 m/S 760 mmHg 95%
    07:00 +8°C° 0 mm 2 m/S 760 mmHg 93%
    08:00 +9°C° 0 mm 2 m/S 761 mmHg 91%
    09:00 +10°C° 0 mm 3 m/S 762 mmHg 89%
    10:00 +11°C° 0 mm 3 m/S 762 mmHg 85%
    11:00 +12°C° 0 mm 3 m/S 762 mmHg 81%
    12:00 +13°C° 0 mm 4 m/S 763 mmHg 76%
    13:00 +13°C° 0 mm 4 m/S 763 mmHg 76%
    14:00 +13°C° 0 mm 4 m/S 763 mmHg 75%
    15:00 +13°C° 0 mm 4 m/S 763 mmHg 74%
    16:00 +12°C° 0 mm 4 m/S 764 mmHg 80%
    17:00 +11°C° 0 mm 4 m/S 764 mmHg 85%
    18:00 +10°C° 0 mm 4 m/S 765 mmHg 91%
    19:00 +10°C° 0 mm 4 m/S 765 mmHg 92%
    20:00 +8°C° 0 mm 4 m/S 765 mmHg 93%
    21:00 +8°C° 0 mm 4 m/S 766 mmHg 94%
    22:00 +8°C° 0 mm 4 m/S 766 mmHg 94%
    23:00 +8°C° 0 mm 4 m/S 766 mmHg 94%
    Mehr zeigen